This is the latest recevied weather packets stored in our database for station/object KB3UMW-13. If no packets are shown the sender has not sent any weather packets the latest 10 day(s).
| Time | Temp. | Humidity | Pressure | Rain* | Wind** | Luminosity | Snow |
|---|---|---|---|---|---|---|---|
| 1777548660 | 6.67° C | 95% | 1009.4 hPa | 0 mm | - | 47 W/m² | - |
| 1777548357 | 6.67° C | 95% | 1009.3 hPa | 0 mm | - | 30 W/m² | - |
| 1777548055 | 6.11° C | 95% | 1009.2 hPa | 0 mm | - | 35 W/m² | - |
| 1777547750 | 6.67° C | 95% | 1009.1 hPa | 0 mm | - | 32 W/m² | - |
| 1777547446 | 6.11° C | 95% | 1009 hPa | 0 mm | - | 36 W/m² | - |
| 1777547144 | 6.11° C | 95% | 1008.9 hPa | 0 mm | - | 28 W/m² | - |
| 1777546841 | 6.11° C | 95% | 1009.1 hPa | 0 mm | - | 24 W/m² | - |
| 1777546538 | 6.67° C | 96% | 1009.1 hPa | 0 mm | - | 18 W/m² | - |
| 1777546235 | 6.11° C | 95% | 1009 hPa | 0 mm | - | 16 W/m² | - |
| 1777545932 | 6.67° C | 95% | 1009.2 hPa | 0 mm | - | 14 W/m² | - |
| 1777545628 | 6.67° C | 95% | 1009 hPa | 0 mm | - | 9 W/m² | - |
| 1777545325 | 6.67° C | 95% | 1009 hPa | 0 mm | - | 8 W/m² | - |
| 1777545023 | 6.67° C | 96% | 1009 hPa | 0 mm | - | 6 W/m² | - |
| 1777544719 | 6.67° C | 96% | 1009 hPa | 0 mm | - | 3 W/m² | - |
| 1777544414 | 6.67° C | 97% | 1008.7 hPa | 0 mm | - | 1 W/m² | - |
| 1777544111 | 6.67° C | 97% | 1008.7 hPa | 0 mm | - | 1 W/m² | - |
| 1777543808 | 6.67° C | 97% | 1008.7 hPa | 0 mm | - | 0 W/m² | - |
| 1777543504 | 6.67° C | 97% | 1009.1 hPa | 0 mm | - | 0 W/m² | - |
| 1777543201 | 6.67° C | 96% | 1008.7 hPa | 0 mm | - | 0 W/m² | - |
| 1777542897 | 6.67° C | 97% | 1009 hPa | 0 mm | - | 0 W/m² | - |
| 1777542593 | 6.67° C | 96% | 1009.1 hPa | 0 mm | - | 0 W/m² | - |
| 1777542290 | 6.67° C | 95% | 1008.9 hPa | 0 mm | - | 0 W/m² | - |
| 1777541987 | 7.22° C | 95% | 1009.2 hPa | 0 mm | - | 0 W/m² | - |
| 1777541684 | 7.22° C | 96% | 1009.1 hPa | 0 mm | - | 0 W/m² | - |
| 1777541381 | 7.22° C | 95% | 1009.2 hPa | 0 mm | - | 0 W/m² | - |
* Rain latest hour (hover to see other rain measurements)
** Current wind speed in m/s (hover to see current wind gust speed)